Flag for U.S.A. Weather past 2 weeks in Houston, Texas, U.S.A.

Now
84 °F

Partly sunny.


Feels Like: 90 °F
Forecast: 79 / 90 °F
Wind: 6 mph from East

Location: Houston Hobby Airport

Current Time: Aug 28, 2014 at 6:29:22 PM

Latest Report: Aug 28, 2014 at 5:53 PM


Visibility: 10 mi

Pressure: 29.89 "Hg

Humidity: 67%

Dew point: 72 °F

Location of HoustonLocation

Historic Weather in Houston — Graph

°F

Houston temperature yesterday

Maximum temperature yesterday: 92 °F (at 1:53 PM)
Minimum temperature yesterday: 79 °F (at 1:53 AM)
Average temperature yesterday: 83 °F

Past Weeks' High & Low Weather Summary

 TemperatureHumidityPressure
High97 °F (Aug 17, 1:53 PM)94% (Aug 21, 4:53 AM)30.10 "Hg (Aug 21, 4:53 AM)
Low76 °F (Aug 24, 6:53 AM)37% (Aug 24, 3:53 PM)29.85 "Hg (Aug 25, 5:53 PM)
Average85 °F71%29.97 "Hg
* Reported Aug 13 4:53 PM — Aug 28 4:53 PM, Houston, Weather by CustomWeather, © 2014

Note: Actual official high and low records may vary slightly from our data, if they occured in-between our weather recording intervals... More about our weather records

Advertising

Houston weather history for previous 24 hours

 ConditionsComfort  
Time TempWeatherWind HumidityBarometerVisibility
4:53 PM
Aug 28
84 °FBroken clouds.8 mph65%29.88 "Hg10 mi
3:53 PM81 °FLight rain. Broken clouds.8 mph77%29.91 "Hg10 mi
2:53 PM86 °FBroken clouds.9 mph65%29.92 "Hg10 mi
1:53 PM86 °FBroken clouds.9 mph67%29.95 "Hg10 mi
12:53 PM83 °FPartly sunny.10 mph72%29.96 "Hg10 mi
11:53 AM82 °FBroken clouds.8 mph74%29.97 "Hg10 mi
10:53 AM79 °FBroken clouds.5 mph82%29.98 "Hg10 mi
9:53 AM78 °FBroken clouds.8 mph84%29.97 "Hg10 mi
8:53 AM79 °FBroken clouds.8 mph84%29.95 "Hg10 mi
7:53 AM79 °FPartly cloudy.No wind84%29.93 "Hg10 mi
6:53 AM78 °FPassing clouds.3 mph87%29.93 "Hg10 mi
6:01 AM79 °FPassing clouds.3 mph84%29.91 "Hg10 mi
4:53 AM78 °FPassing clouds.No wind87%29.92 "Hg10 mi
3:53 AM79 °FLight rain. Partly cloudy.8 mph84%29.93 "Hg10 mi
2:53 AM80 °FPassing clouds.5 mph87%29.93 "Hg10 mi
1:53 AM80 °FPassing clouds.3 mph85%29.95 "Hg10 mi
12:53 AM81 °FPassing clouds.No wind82%29.96 "Hg10 mi
11:53 PM
Aug 27
80 °FPassing clouds.3 mph81%29.96 "Hg10 mi
10:53 PM81 °FPassing clouds.5 mph79%29.97 "Hg10 mi
9:53 PM80 °FPartly cloudy.5 mph79%29.97 "Hg10 mi
8:53 PM81 °FPartly cloudy.3 mph77%29.96 "Hg10 mi
7:53 PM83 °FPartly sunny.8 mph72%29.96 "Hg10 mi
6:53 PM86 °FPartly sunny.9 mph65%29.95 "Hg10 mi
Weather by CustomWeather, © 2014

See weather overviewHow to use our weather pages